OBJECT S

Satellite information

Favourite Embed

Satellite Type and Status

UNKNOWNIN ORBIT

Key statistics

Satellite OBJECT S at a glance.

Uptime

1386

Days in orbit

Revolutions

≈ 15.6

Per day

Orbit

SSO

Sun Synchronous Orbit

Inclination

97.4

Latest

Satellite identification and parameters

Extended collection of information and parameters for OBJECT S.

Object identification

Identified? True

Debris? False

Object name: OBJECT S

International designator: 2022-019S

Object number (NORAD): 51840

Object ID (CCSDS): 51840

Country: PEOPLES REPUBLIC OF CHINA (PRC)

Current information (Y/N): Y

RCS size: MEDIUM

Orbital parameters

Period: 92.42 minutes

Inclination: 97.382 deg

SMA: 6771.301 km

Apoapsis: 393.755 km

Periapsis: 392.577 km

RAAN: 71.757 deg

Eccentricy: 0.00008699

Argument of periapsis: 0.1086 deg

Mean anomaly: 0.0169 deg

Mean motion: 15.5809737 rev/day

Mean motion (dot): 0.00069597 rev/day2

B* drag term: 0.00092072345 1/REarth

Two-line elements (TLE)

Creation date: Dec. 14, 2025, 3:07 a.m.

Reference frame: TEME

Reference center: EARTH

Epoch: Dec. 13, 2025, 4:21 p.m. UTC

TLE line 0: 0 OBJECT S

TLE line 1: 1 51840U 22019S 25347.68136752 .00069597 00000-0 92072-3 0 9990

TLE line 2: 2 51840 97.3820 71.7570 0000870 0.1086 0.0169 15.58097370211023

Live tracking on map

Real-time ground track for satellite OBJECT S.

In-orbit conjunctions

There are no conjunctions computed for OBJECT S, at the moment. Check back to stay up to date, as we update our databases every day.

Go to all conjunctions

Associated space launch

Carried 22 satellites to sun-synchronous orbit on a share-ride mission, including the Hainan-1 satellites.

OBJECT S was lifted into orbit during the mission ‘Long March 8 (Core Only) | Hainan-1 to 4 & others’, on board a Long March 8 (Core Only) space rocket.

The launch took place on Feb. 27, 2022, 3:06 a.m. from 201.

For more information about the launch, click the button.

Launch to space Long March 8 (Core Only) | Hainan-1 to 4 & others
Long March 8 (Core Only) | Hainan-1 to 4 & others

Agency: N/A

Status: Launch Successful

Launch date: Feb. 27, 2022, 3:06 a.m. UTC

Rocket: Long March 8 (Core Only)

Launch pad: 201

Location: Wenchang Space Launch Site, People's Republic of China

...

Latest news about this satellite

News about space launch
China launches new variant of Long March 8 rocket

Two recent launches from China set a new record for the largest number of satellites ever deployed by a Chinese rocket, and added a new radar imaging capability to the country’s remote sensing fleet.

News about space launch
China launches national record 22 satellites on Long March 8 commercial rideshare

China’s second Long March 8 rocket launched late Saturday carrying a domestic record 22 satellites for a range of commercial Chinese space companies.


Newsletter sign-up

Weekly statistics, charts and insights to help you stay on top of the space industry.